Regional Weather Roundup
Issued by NWS Wakefield, VA

Home | Current Version | Previous Version | Graphics & Text | Print | Product List | Glossary On
Versions: 1 2 3 4 5 6 7 8 9 10 11 12 13 14 15 16 17 18 19 20 21 22 23 24 25 26 27 28 29 30 31 32 33 34 35 36 37 38 39 40 41 42 43 44 45 46 47 48 49 50
000
ASUS41 KAKQ 171414
RWRAKQ

REGIONAL WEATHER ROUNDUP
NATIONAL WEATHER SERVICE WAKEFIELD VA
1000 AM EDT FRI APR 17 2015

Note: "fair" indicates few or no clouds below 12,000 feet with no
significant weather and/or obstructions to visibility. * = Denotes
station may not report precipitation (e.g., rain,snow,etc.),
thunder or fog.

VAZ042-051-052>054-056-171500-
NORTHERN VIRGINIA

CITY           SKY/WX    TMP DP  RH WIND       PRES   REMARKS
WASH NATIONAL  MOSUNNY   67  57  70 SW12      30.10F
DULLES         MOSUNNY   64  56  75 SW7       30.09F
FORT BELVOIR   MOSUNNY   64  57  79 S8        30.09F
QUANTICO       MOSUNNY   62  56  80 S10       30.11F
FREDERICKSBRG* SUNNY     66  60  80 SW6       30.10F
STAFFORD*      SUNNY     65  65 100 SW8       30.13F
WARRENTON      SUNNY     68  60  77 SW5       30.09F
CULPEPER*      NOT AVBL
MANASSAS*      SUNNY     66  59  77 CALM      30.09F
LEESBURG*      MOSUNNY   64  59  82 SW7       30.10S
WINCHESTER     MOSUNNY   64  52  63 S9        30.08S
FRONT ROYAL*   FAIR      64  55  72 SW9       30.07F
LURAY*         FAIR      68  57  68 SW12      30.09F
$$

VAZ048-049-060>072-079>083-171500-
CENTRAL AND SOUTH CENTRAL VIRGINIA

CITY           SKY/WX    TMP DP  RH WIND       PRES   REMARKS
RICHMOND       PTSUNNY   61  57  87 S6        30.13F
CHESTERFIELD*  NOT AVBL
PETERSBURG*    LGT RAIN  60  57  91 CALM      30.15F
HANOVER        MOSUNNY   64  57  78 S9        30.14F
TAPPAHANNOCK*  CLOUDY    63  54  74 S7        30.13F
QUINTON*       CLOUDY    60  57  91 SW3       30.14F
CHARLOTTSVILLE SUNNY     66  57  72 S8        30.09F
GORDONSVILLE*  FAIR      64  57  78 SW8       30.09F
ORANGE*        SUNNY     66  59  77 S12       30.11F
LOUISA*        MOSUNNY   66  59  77 S9        30.09F
BUMPASS*       FAIR      64  58  80 MISG      30.11F
FARMVILLE*     CLOUDY    65  63  91 SW3       30.11F
CREWE*         CLOUDY    65  57  75 CALM      30.13F
FORT PICKETT*  CLOUDY    63  58  83 SW7       30.14F
CHASE CITY*    CLOUDY    64  63  96 CALM      30.14F
CLARKSVILLE*   CLOUDY    59  59 100 CALM      30.15S
SOUTH HILL*    CLOUDY    60  56  88 SW6       30.21S
LAWRENCEVILLE* CLOUDY    61  58  89 S5        30.15S
EMPORIA*       CLOUDY    59  55  88 CALM      30.16F
$$

VAZ088>098-171500-
SOUTHEAST VIRGINIA

CITY           SKY/WX    TMP DP  RH WIND       PRES   REMARKS
NORFOLK        CLOUDY    68  59  73 SW9       30.14F
VIRGINIA BEACH CLOUDY    70  60  70 S8        30.14F
NORFOLK NAVAL  CLOUDY    70  58  65 S6        30.15F
WEST POINT*    CLOUDY    63  58  84 CALM      30.15F
SALUDA*        CLOUDY    64  58  82 SW6       30.13F
NEWPORT NEWS   CLOUDY    68  58  70 SW5       30.15S
LANGLEY AFB    CLOUDY    66  59  78 S8        30.13F
FORT EUSTIS    CLOUDY    62  60  91 SE2       30.13S
WILLIAMSBURG*  PTSUNNY   66  61  82 S3        30.15F
HR EXEC AP*    CLOUDY    66  59  77 S6        30.15F
FRANKLIN*      LGT RAIN N/A N/A N/A S3        30.15F
WAKEFIELD      CLOUDY    63  57  81 CALM      30.14F
$$

VAZ020-022-025-037-045-171500-
WEST CENTRAL AND SOUTHWEST VIRGINIA

CITY           SKY/WX    TMP DP  RH WIND       PRES   REMARKS
STAUNTON*      SUNNY     64  56  73 S6        30.12F
WAYNESBORO*    FAIR      62  55  78 SW14      30.12F
HOT SPRINGS VA FOG       52  52 100 W12       30.16S VSB<1/4
LYNCHBURG      PTSUNNY   57  56  96 VRB6      30.14F
DANVILLE       CLOUDY    60  56  86 SW3       30.15F
SOUTH BOSTON*  CLOUDY    60  57  89 CALM      30.15F
MARTINSVILLE   CLOUDY    58  58 100 CALM      30.17F
ROANOKE        MOSUNNY   60  55  83 CALM      30.16F
BLACKSBURG     CLOUDY    53  53  98 CALM      30.20S FOG
DUBLIN*        MOSUNNY   60  60 100 SW3       30.18F
MARION*        MOSUNNY   63  55  75 W8        30.20F
HILLSVILLE*    PTSUNNY   56  55  94 W3        30.18S
RICHLANDS*     CLOUDY    58  51  77 W3        30.19R
WISE*          CLOUDY    57  55  94 SW7       30.20S
ABINGDON*      CLOUDY    61  56  82 CALM      30.18S
$$

MDZ021>025-VAZ099-100-171500-
SOUTHERN MARYLAND AND THE DELMARVA PENINSULA

CITY           SKY/WX    TMP DP  RH WIND       PRES   REMARKS
PATUXENT RIVER PTSUNNY   63  58  83 S12       30.11F
BAY BRIDGE APT   N/A     61  57  88 S8        30.10F
LEONARDTOWN    MOSUNNY   63  55  77 SW8       30.12F
DOVER          PTSUNNY   61  61 100 S10       30.06F
GEORGETOWN     CLOUDY    62  57  83 SW8       30.12F
EASTON         CLOUDY    61  61 100 SW6       30.14F
CAMBRIDGE      PTSUNNY   61  55  82 SW6       30.11F
SALISBURY      CLOUDY    64  57  78 S14       30.11F
OCEAN CITY     CLOUDY    63  56  78 SW13      30.13F
WALLOPS ISLAND CLOUDY    64  59  83 S15       30.13F
ACCOMACK*      CLOUDY    64  55  72 S9        30.14F
$$

NCZ012>017-030>032-171500-
NORTH CENTRAL AND EASTERN NORTH CAROLINA

CITY           SKY/WX    TMP DP  RH WIND       PRES   REMARKS
ROANOKE RAPIDS CLOUDY    61  57  88 CALM      30.15F
RALEIGH        LGT RAIN  62  58  86 CALM      30.17S
ELIZABETH CITY PTSUNNY   69  61  75 SE5       30.15F
AHOSKIE*       CLOUDY    63  59  86 CALM      30.15F
EDENTON*       CLOUDY    68  60  76 SE3       30.15S
CURRITUCK*     PTSUNNY   69  58  68 CALM      30.16S
KILL DEVIL HLS PTSUNNY   70  59  68 E3        30.14F
MANTEO         PTSUNNY   69  59  70 S8        30.16S
CAPE HATTERAS  PTSUNNY   68  60  75 SE5       30.15R
TARBORO*       PTSUNNY   63  59  86 CALM      30.16F
GOLDSBORO      CLOUDY    66  63  88 CALM      30.12S
WASHINGTON     PTSUNNY   68  62  83 SE3       30.14F
GREENVILLE     CLOUDY    66  61  82 CALM      30.15F
NEW BERN       MOSUNNY   73  64  73 S8        30.14F
WILMINGTON     LGT RAIN  68  66  93 N7        30.12S FOG
$$

VAZ048-171500-
ELSEWHERE

CITY           SKY/WX    TMP DP  RH WIND       PRES   REMARKS
HARRISBURG PA  PTSUNNY   59  54  83 NW5       30.06F
BALTIMORE      PTSUNNY   65  58  78 SW9       30.09S
ANNAPOLIS      MOSUNNY   60  55  83 SE7       30.09F
ANDREWS AFB    MOSUNNY   66  57  74 SW14      30.09F
PHILADELPHIA   CLOUDY    58  55  90 SW10      30.09F
HENDERSON NC   RAIN      60  57  91 CALM      30.16S
GREENSBORO     CLOUDY    57  55  93 CALM      30.15F FOG
ROCKY MOUNT    CLOUDY    62  60  93 CALM      30.15F
$$

VAZ100-171500-
MARINE

STATION/POSITION TIME  TEMP    WIND        PRES    WAVE   SWELL
                       AIR SEA DIR/SP/G            HT/PER HT/PER
                 (UTC) (F)     (DEG/KT/KT) (MB)    (FT/S) (FT/S)
CAPE MAY NJ      1300   54 53  180/  2/  3 1020.1F
LEWES DE         1300   60 50  230/  7/ 11 1020.0F
15NM E FENWICK I 1350   50 47              1020.1F   4/10
OCEAN-CITY-INLET 1300   54 48  210/ 10/ 11 1020.5F
WACHAPREAGUE VA  1300   60 58  230/  6/  8 1021.1F
GOOSES REEF MD   1400   54 54  180/  8/ 10   N/A     1
COVE POINT MD    1300   53     180/  6/  7 1019.9F
SOLOMONS ISLAND  1300      54                N/A
BISHOPS HEAD MD  1300   58 59  190/ 10/ 11 1020.1F
PINEY POINT MD   1312          180/  6/  7   N/A
CAMBRIDGE MD     1300   58 55  180/  4/  7 1019.8F
LEWISETTA VA     1300   60 58              1020.0F
RAPPAHANNOCK LGT 1300          220/  9/ 10 1021.5F
STINGRAY PT      1400   57 55  170/  4/  4 1021.4F   0
YORK RVR RNG VA  1300   57     300/  1/  2 1020.4F
YORKTOWN VA      1300   60 57   30/  3/  4 1020.5F
DOMINION TERM VA 1300   60     180/  2/  3 1020.9F
KIPTOPEKE VA     1300      59  170/ 10/ 11   N/A
CHES BAY BRIDGE  1300   62 53  180/  5/  7 1020.6F
CAPE HENRY VA    1300   64     160/  4/  5 1019.8F
CHESAPEAKE LGHT  1300   58     190/ 13/ 13 1021.6R
WILLOUBY STN VA  1300   61     200/  4/  5 1021.4F
S CRANEY ISL VA  1300          180/  4/  5 1020.9F
CAPE HENRY BUOY  1328      50                N/A     4/ 7   2/11
1ST LANDING BUOY 1400   56     130/  6/  6 1020.2F   2/ 5
OFFSHORE WE BUOY 1311      47                N/A     5/ 9   5/ 9
64NM E OF VA BCH 1350   61 57  190/  4/  4 1021.0S   6/10   5/10
DUCK PIER NC     1300   56 51  150/  5/  5 1020.5R
44056 DUCK FRF   1311      52                N/A     5/ 8   2/11
OREGON INLET NC  1300   62 56  110/  5/  7 1021.0F
HATTERAS NC      1300   69 65  130/  4/  6 1020.3F
DIAMOND SHLS NC  1350   71 73  150/ 12/ 14 1020.5F   7/ 8   7/ 8
CAPE LOOKOUT NC  1400   67     110/  8/  9 1019.8F
$$


USA.gov is the U.S. government's official web portal to all federal, state and local government web resources and services.